Tracking 28790 objects as of 19-Apr-2024
HD Live streaming from Space Station
objects crossing your sky now

FENGYUN 1C DEB

Track FENGYUN 1C DEB now!
10-day predictions


NORAD ID: 29870
Int'l Code: 1999-025FQ
Perigee: 717.0 km
Apogee: 890.8 km
Inclination: 98.4 °
Period: 100.8 minutes
Semi major axis: 7174 km
RCS: 0.068 m2 (small)
Launch date: May 10, 1999
Source: People's Republic of China (PRC)
Launch site: Taiyaun Space Center, China (TSC)

Note: This is SATELLITE DEBRIS
Your satellite tracking list
Your tracking list is empty




NASA's NSSDC Master Catalog

Two Line Element Set (TLE):
1 29870U 99025FQ  24109.96114484  .00000352  00000-0  14524-3 0  9993
2 29870  98.3878  95.4296 0121176 169.1973 252.0593 14.28497560899862
Source of the keplerian elements: AFSPC